Time,TemperatureF,DewpointF,PressureIn,WindDirection,WindDirectionDegrees,WindSpeedMPH,WindSpeedGustMPH,Humidity,HourlyPrecipIn,Conditions,Clouds,dailyrainin,SolarRadiationWatts/m^2,SoftwareType,DateUTC
2013-02-01 00:01:00,41.0,39.0,-100.00,East,91,5.0,7.0,92,0.00,,,0.01,0.000000,,2013-02-01 08:01:00,
2013-02-01 00:11:00,41.0,39.0,-100.00,East,91,5.0,7.0,92,0.00,,,0.01,0.000000,,2013-02-01 08:11:00,
2013-02-01 00:32:00,41.0,39.0,-100.00,WNW,297,3.0,7.0,92,0.00,,,0.01,0.000000,,2013-02-01 08:32:00,
2013-02-01 00:42:00,41.0,39.0,-100.00,WNW,297,3.0,7.0,92,0.00,,,0.01,0.000000,,2013-02-01 08:42:00,
2013-02-01 00:52:00,41.0,39.0,-100.00,WNW,297,3.0,7.0,92,0.00,,,0.01,0.000000,,2013-02-01 08:52:00,
2013-02-01 01:01:00,41.0,39.0,-100.00,WNW,297,3.0,7.0,92,0.00,,,0.01,0.000000,,2013-02-01 09:01:00,
2013-02-01 01:11:00,41.0,39.0,-100.00,WNW,297,3.0,7.0,92,0.00,,,0.01,0.000000,,2013-02-01 09:11:00,
2013-02-01 01:32:00,41.0,38.0,-100.00,WNW,292,3.0,5.0,90,0.00,,,0.01,0.000000,,2013-02-01 09:32:00,
2013-02-01 01:42:00,41.0,38.0,-100.00,WNW,292,3.0,5.0,90,0.00,,,0.01,0.000000,,2013-02-01 09:42:00,
2013-02-01 01:52:00,41.0,38.0,-100.00,WNW,292,3.0,5.0,90,0.00,,,0.01,0.000000,,2013-02-01 09:52:00,
2013-02-01 02:01:00,41.0,38.0,-100.00,WNW,292,3.0,5.0,90,0.00,,,0.01,0.000000,,2013-02-01 10:01:00,
2013-02-01 02:11:00,41.0,38.0,-100.00,WNW,292,3.0,5.0,90,0.00,,,0.01,0.000000,,2013-02-01 10:11:00,
2013-02-01 02:32:00,40.0,38.0,-100.00,SSE,152,3.0,4.0,92,0.00,,,0.01,0.000000,,2013-02-01 10:32:00,
2013-02-01 02:43:00,40.0,38.0,-100.00,SSE,152,3.0,4.0,92,0.00,,,0.01,0.000000,,2013-02-01 10:43:00,
2013-02-01 02:53:00,40.0,38.0,-100.00,SSE,152,3.0,4.0,92,0.00,,,0.01,0.000000,,2013-02-01 10:53:00,
2013-02-01 03:01:00,40.0,38.0,-100.00,SSE,152,3.0,4.0,92,0.00,,,0.01,0.000000,,2013-02-01 11:01:00,
2013-02-01 03:11:00,40.0,38.0,-100.00,SSE,152,3.0,4.0,92,0.00,,,0.01,0.000000,,2013-02-01 11:11:00,
2013-02-01 03:32:00,40.0,38.0,-100.00,East,99,4.0,7.0,91,0.00,,,0.00,0.000000,,2013-02-01 11:32:00,
2013-02-01 03:42:00,40.0,38.0,-100.00,East,99,4.0,7.0,91,0.00,,,0.00,0.000000,,2013-02-01 11:42:00,
2013-02-01 03:53:00,40.0,38.0,-100.00,East,99,4.0,7.0,91,0.00,,,0.00,0.000000,,2013-02-01 11:53:00,
2013-02-01 04:02:00,40.0,38.0,-100.00,East,99,4.0,7.0,91,0.00,,,0.00,0.000000,,2013-02-01 12:02:00,
2013-02-01 04:12:00,40.0,38.0,-100.00,East,99,4.0,7.0,91,0.00,,,0.00,0.000000,,2013-02-01 12:12:00,
2013-02-01 04:32:00,40.0,37.0,-100.00,SE,135,3.0,6.0,90,0.00,,,0.00,0.000000,,2013-02-01 12:32:00,
2013-02-01 04:42:00,40.0,37.0,-100.00,SE,135,3.0,6.0,90,0.00,,,0.00,0.000000,,2013-02-01 12:42:00,
2013-02-01 04:52:00,40.0,37.0,-100.00,SE,135,3.0,6.0,90,0.00,,,0.00,0.000000,,2013-02-01 12:52:00,
2013-02-01 05:02:00,40.0,37.0,-100.00,SE,135,3.0,6.0,90,0.00,,,0.00,0.000000,,2013-02-01 13:02:00,
2013-02-01 05:11:00,40.0,37.0,-100.00,SE,135,3.0,6.0,90,0.00,,,0.00,0.000000,,2013-02-01 13:11:00,
2013-02-01 05:33:00,41.0,37.0,-100.00,ESE,111,4.0,7.0,87,0.00,,,0.00,0.000000,,2013-02-01 13:33:00,
2013-02-01 05:42:00,41.0,37.0,-100.00,ESE,111,4.0,7.0,87,0.00,,,0.00,0.000000,,2013-02-01 13:42:00,
2013-02-01 05:53:00,41.0,37.0,-100.00,ESE,111,4.0,7.0,87,0.00,,,0.00,0.000000,,2013-02-01 13:53:00,
2013-02-01 06:03:00,41.0,37.0,-100.00,ESE,111,4.0,7.0,87,0.00,,,0.00,0.000000,,2013-02-01 14:03:00,
2013-02-01 06:11:00,41.0,37.0,-100.00,ESE,111,4.0,7.0,87,0.00,,,0.00,0.000000,,2013-02-01 14:11:00,
2013-02-01 06:32:00,41.0,37.0,-100.00,SE,131,6.0,7.0,86,0.00,,,0.00,0.000000,,2013-02-01 14:32:00,
2013-02-01 06:42:00,41.0,37.0,-100.00,SE,131,6.0,7.0,86,0.00,,,0.00,0.000000,,2013-02-01 14:42:00,
2013-02-01 06:52:00,41.0,37.0,-100.00,SE,131,6.0,7.0,86,0.00,,,0.00,0.000000,,2013-02-01 14:52:00,
2013-02-01 07:02:00,41.0,37.0,-100.00,SE,131,6.0,7.0,86,0.00,,,0.00,0.000000,,2013-02-01 15:02:00,
2013-02-01 07:11:00,41.0,37.0,-100.00,SE,131,6.0,7.0,86,0.00,,,0.00,0.000000,,2013-02-01 15:11:00,
2013-02-01 07:33:00,41.0,37.0,-100.00,ESE,120,4.0,9.0,84,0.00,,,0.00,0.000000,,2013-02-01 15:33:00,
2013-02-01 07:42:00,41.0,37.0,-100.00,ESE,120,4.0,9.0,84,0.00,,,0.00,0.000000,,2013-02-01 15:42:00,
2013-02-01 07:52:00,41.0,37.0,-100.00,ESE,120,4.0,9.0,84,0.00,,,0.00,0.000000,,2013-02-01 15:52:00,
2013-02-01 08:02:00,41.0,37.0,-100.00,ESE,120,4.0,9.0,84,0.00,,,0.00,0.000000,,2013-02-01 16:02:00,
2013-02-01 08:11:00,41.0,37.0,-100.00,ESE,120,4.0,9.0,84,0.00,,,0.00,0.000000,,2013-02-01 16:11:00,
2013-02-01 08:33:00,42.0,38.0,-100.00,SW,236,2.0,7.0,84,0.00,,,0.00,18.000000,,2013-02-01 16:33:00,
2013-02-01 08:43:00,42.0,38.0,-100.00,SW,236,2.0,7.0,84,0.00,,,0.00,18.000000,,2013-02-01 16:43:00,
2013-02-01 08:52:00,42.0,38.0,-100.00,SW,236,2.0,7.0,84,0.00,,,0.00,18.000000,,2013-02-01 16:52:00,
2013-02-01 09:02:00,42.0,38.0,-100.00,SW,236,2.0,7.0,84,0.00,,,0.00,18.000000,,2013-02-01 17:02:00,
2013-02-01 09:11:00,42.0,38.0,-100.00,SW,236,2.0,7.0,84,0.00,,,0.00,18.000000,,2013-02-01 17:11:00,
2013-02-01 09:32:00,47.0,39.0,-100.00,NW,325,2.0,5.0,74,0.00,,,0.00,168.000000,,2013-02-01 17:32:00,
2013-02-01 09:42:00,47.0,39.0,-100.00,NW,325,2.0,5.0,74,0.00,,,0.00,168.000000,,2013-02-01 17:42:00,
2013-02-01 09:53:00,47.0,39.0,-100.00,NW,325,2.0,5.0,74,0.00,,,0.00,168.000000,,2013-02-01 17:53:00,
2013-02-01 10:02:00,47.0,39.0,-100.00,NW,325,2.0,5.0,74,0.00,,,0.00,168.000000,,2013-02-01 18:02:00,
2013-02-01 10:11:00,47.0,39.0,-100.00,NW,325,2.0,5.0,74,0.00,,,0.00,168.000000,,2013-02-01 18:11:00,
2013-02-01 10:32:00,48.0,39.0,-100.00,WNW,283,3.0,4.0,72,0.00,,,0.00,319.000000,,2013-02-01 18:32:00,
2013-02-01 10:42:00,48.0,39.0,-100.00,WNW,283,3.0,4.0,72,0.00,,,0.00,319.000000,,2013-02-01 18:42:00,
2013-02-01 10:53:00,48.0,39.0,-100.00,WNW,283,3.0,4.0,72,0.00,,,0.00,319.000000,,2013-02-01 18:53:00,
2013-02-01 11:02:00,48.0,39.0,-100.00,WNW,283,3.0,4.0,72,0.00,,,0.00,319.000000,,2013-02-01 19:02:00,
2013-02-01 11:11:00,48.0,39.0,-100.00,WNW,283,3.0,4.0,72,0.00,,,0.00,319.000000,,2013-02-01 19:11:00,
2013-02-01 11:42:00,51.0,42.0,-100.00,West,270,3.0,4.0,70,0.00,,,0.00,450.000000,,2013-02-01 19:42:00,
2013-02-01 11:52:00,51.0,42.0,-100.00,West,270,3.0,4.0,70,0.00,,,0.00,450.000000,,2013-02-01 19:52:00,
2013-02-01 12:02:00,51.0,42.0,-100.00,West,270,3.0,4.0,70,0.00,,,0.00,450.000000,,2013-02-01 20:02:00,
2013-02-01 12:11:00,51.0,42.0,-100.00,West,270,3.0,4.0,70,0.00,,,0.00,450.000000,,2013-02-01 20:11:00,
2013-02-01 12:32:00,56.0,44.0,-100.00,WNW,301,2.0,6.0,64,0.00,,,-99.99,513.000000,,2013-02-01 20:32:00,
2013-02-01 12:42:00,56.0,44.0,-100.00,WNW,301,2.0,6.0,64,0.00,,,-99.99,513.000000,,2013-02-01 20:42:00,
2013-02-01 12:52:00,56.0,44.0,-100.00,WNW,301,2.0,6.0,64,0.00,,,-99.99,513.000000,,2013-02-01 20:52:00,
2013-02-01 13:01:00,56.0,44.0,-100.00,WNW,301,2.0,6.0,64,0.00,,,-99.99,513.000000,,2013-02-01 21:01:00,
2013-02-01 13:11:00,56.0,44.0,-100.00,WNW,301,2.0,6.0,64,0.00,,,-99.99,513.000000,,2013-02-01 21:11:00,
2013-02-01 13:32:00,60.0,44.0,-100.00,ENE,58,2.0,6.0,56,0.00,,,0.00,534.000000,,2013-02-01 21:32:00,
2013-02-01 13:42:00,60.0,44.0,-100.00,ENE,58,2.0,6.0,56,0.00,,,0.00,534.000000,,2013-02-01 21:42:00,
2013-02-01 13:52:00,60.0,44.0,-100.00,ENE,58,2.0,6.0,56,0.00,,,0.00,534.000000,,2013-02-01 21:52:00,
2013-02-01 14:02:00,60.0,44.0,-100.00,ENE,58,2.0,6.0,56,0.00,,,0.00,534.000000,,2013-02-01 22:02:00,
2013-02-01 14:11:00,60.0,44.0,-100.00,ENE,58,2.0,6.0,56,0.00,,,0.00,534.000000,,2013-02-01 22:11:00,
2013-02-01 14:32:00,61.0,45.0,-100.00,North,354,2.0,5.0,55,0.00,,,0.00,482.000000,,2013-02-01 22:32:00,
2013-02-01 14:42:00,61.0,45.0,-100.00,North,354,2.0,5.0,55,0.00,,,0.00,482.000000,,2013-02-01 22:42:00,
2013-02-01 14:52:00,61.0,45.0,-100.00,North,354,2.0,5.0,55,0.00,,,0.00,482.000000,,2013-02-01 22:52:00,
2013-02-01 15:01:00,61.0,45.0,-100.00,North,354,2.0,5.0,55,0.00,,,0.00,482.000000,,2013-02-01 23:01:00,
2013-02-01 15:11:00,61.0,45.0,-100.00,North,354,2.0,5.0,55,0.00,,,0.00,482.000000,,2013-02-01 23:11:00,
2013-02-01 15:32:00,62.0,45.0,-100.00,NNW,334,2.0,6.0,54,0.00,,,0.00,388.000000,,2013-02-01 23:32:00,
2013-02-01 15:42:00,62.0,45.0,-100.00,NNW,334,2.0,6.0,54,0.00,,,0.00,388.000000,,2013-02-01 23:42:00,
2013-02-01 15:52:00,62.0,45.0,-100.00,NNW,334,2.0,6.0,54,0.00,,,0.00,388.000000,,2013-02-01 23:52:00,
2013-02-01 16:01:00,62.0,45.0,-100.00,NNW,334,2.0,6.0,54,0.00,,,0.00,388.000000,,2013-02-02 00:01:00,
2013-02-01 16:11:00,62.0,45.0,-100.00,NNW,334,2.0,6.0,54,0.00,,,0.00,388.000000,,2013-02-02 00:11:00,
2013-02-01 16:32:00,60.0,43.0,-100.00,WNW,289,3.0,5.0,53,0.00,,,0.00,247.000000,,2013-02-02 00:32:00,
2013-02-01 16:42:00,60.0,43.0,-100.00,WNW,289,3.0,5.0,53,0.00,,,0.00,247.000000,,2013-02-02 00:42:00,
2013-02-01 16:52:00,60.0,43.0,-100.00,WNW,289,3.0,5.0,53,0.00,,,0.00,247.000000,,2013-02-02 00:52:00,
2013-02-01 17:01:00,60.0,43.0,-100.00,WNW,289,3.0,5.0,53,0.00,,,0.00,247.000000,,2013-02-02 01:01:00,
2013-02-01 17:11:00,60.0,43.0,-100.00,WNW,289,3.0,5.0,53,0.00,,,0.00,247.000000,,2013-02-02 01:11:00,
2013-02-01 17:32:00,58.0,41.0,-100.00,West,267,3.0,5.0,53,0.00,,,0.00,82.000000,,2013-02-02 01:32:00,
2013-02-01 17:42:00,58.0,41.0,-100.00,West,267,3.0,5.0,53,0.00,,,0.00,82.000000,,2013-02-02 01:42:00,
2013-02-01 17:52:00,58.0,41.0,-100.00,West,267,3.0,5.0,53,0.00,,,0.00,82.000000,,2013-02-02 01:52:00,
2013-02-01 18:01:00,58.0,41.0,-100.00,West,267,3.0,5.0,53,0.00,,,0.00,82.000000,,2013-02-02 02:01:00,
2013-02-01 18:11:00,58.0,41.0,-100.00,West,267,3.0,5.0,53,0.00,,,0.00,82.000000,,2013-02-02 02:11:00,
2013-02-01 18:42:00,55.0,40.0,-100.00,NW,324,2.0,4.0,57,0.00,,,0.00,4.000000,,2013-02-02 02:42:00,
2013-02-01 18:52:00,55.0,40.0,-100.00,NW,324,2.0,4.0,57,0.00,,,0.00,4.000000,,2013-02-02 02:52:00,
2013-02-01 19:02:00,55.0,40.0,-100.00,NW,324,2.0,4.0,57,0.00,,,0.00,4.000000,,2013-02-02 03:02:00,
2013-02-01 19:11:00,55.0,40.0,-100.00,NW,324,2.0,4.0,57,0.00,,,0.00,4.000000,,2013-02-02 03:11:00,
2013-02-01 19:42:00,54.0,41.0,-100.00,East,98,2.0,4.0,61,0.00,,,0.00,0.000000,,2013-02-02 03:42:00,
2013-02-01 19:52:00,54.0,41.0,-100.00,East,98,2.0,4.0,61,0.00,,,0.00,0.000000,,2013-02-02 03:52:00,
2013-02-01 20:01:00,54.0,41.0,-100.00,East,98,2.0,4.0,61,0.00,,,0.00,0.000000,,2013-02-02 04:01:00,
2013-02-01 20:32:00,52.0,43.0,-100.00,SE,142,2.0,5.0,70,-99.99,,,0.00,0.000000,,2013-02-02 04:32:00,
2013-02-01 20:42:00,52.0,43.0,-100.00,SE,142,2.0,5.0,70,-99.99,,,0.00,0.000000,,2013-02-02 04:42:00,
2013-02-01 20:52:00,52.0,43.0,-100.00,SE,142,2.0,5.0,70,-99.99,,,0.00,0.000000,,2013-02-02 04:52:00,
2013-02-01 21:02:00,52.0,43.0,-100.00,SE,142,2.0,5.0,70,-99.99,,,0.00,0.000000,,2013-02-02 05:02:00,
2013-02-01 21:11:00,52.0,43.0,-100.00,SE,142,2.0,5.0,70,-99.99,,,0.00,0.000000,,2013-02-02 05:11:00,
2013-02-01 21:33:00,50.0,42.0,-100.00,West,263,3.0,4.0,75,0.00,,,0.00,0.000000,,2013-02-02 05:33:00,
2013-02-01 21:42:00,50.0,42.0,-100.00,West,263,3.0,4.0,75,0.00,,,0.00,0.000000,,2013-02-02 05:42:00,
2013-02-01 21:52:00,50.0,42.0,-100.00,West,263,3.0,4.0,75,0.00,,,0.00,0.000000,,2013-02-02 05:52:00,
2013-02-01 22:02:00,50.0,42.0,-100.00,West,263,3.0,4.0,75,0.00,,,0.00,0.000000,,2013-02-02 06:02:00,
2013-02-01 22:32:00,49.0,42.0,-100.00,South,189,2.0,5.0,78,0.00,,,0.00,0.000000,,2013-02-02 06:32:00,
2013-02-01 22:42:00,49.0,42.0,-100.00,South,189,2.0,5.0,78,0.00,,,0.00,0.000000,,2013-02-02 06:42:00,
2013-02-01 22:52:00,49.0,42.0,-100.00,South,189,2.0,5.0,78,0.00,,,0.00,0.000000,,2013-02-02 06:52:00,
2013-02-01 23:02:00,49.0,42.0,-100.00,South,189,2.0,5.0,78,0.00,,,0.00,0.000000,,2013-02-02 07:02:00,
2013-02-01 23:32:00,48.0,42.0,-100.00,West,270,2.0,3.0,80,0.00,,,0.00,0.000000,,2013-02-02 07:32:00,
2013-02-01 23:42:00,48.0,42.0,-100.00,West,270,2.0,3.0,80,0.00,,,0.00,0.000000,,2013-02-02 07:42:00,
2013-02-01 23:52:00,48.0,42.0,-100.00,West,270,2.0,3.0,80,0.00,,,0.00,0.000000,,2013-02-02 07:52:00,